STARLINK-4712, 53798

Orbit data source: Space-Track

STARLINK-4712, 53798 is a payload satellite owned by SpaceX/Seattle (US) in LEO that was launched on Sun, 11 Sep 2022 UTC via an FALCON 9 launch vehicle from the Air Force Eastern Test Range (AFETR). Payload-class satellites include a variety of spacecraft equipped with specific instruments for various scientific and technological missions. These include communications satellites like Starlink; space stations such as the ISS; scientific satellites like the Hubble; Earth observation satellites from companies like Planet Labs, Umbra, and HawkEye 360; GPS; miniature CubeSats for education and research; and military/defense satellites.

Loading next visibility...
Identifier
53798, 2022-111AB
Orbit
LEO
Country
Flag of USUS
Related business
Manufacturer
SpaceX/Seattle
Mission
Operational Commercial Communications
Bus & Motor
STARLINK, Unknown motor
Mass
305 kg wet, ~290 kg dry
Launch date (UTC)
2022-09-11 (3 years ago)
Launch vehicle
FALCON 9
Launch site
Air Force Eastern Test Range (AFETR)
Object type
Payload
Rocket body
Debris
Shape & HBR
Box + 1 Pan, 10.1 m
Radar Cross Section
13.562 m², Large (>1 m²)

Expand to show TLE details & history
Last TLE update: 1 day ago

TLE from 1 day ago
0 STARLINK-4712
1 53798U 22111AB  25315.06624587 -.00000032  00000-0  16087-4 0  9995
2 53798  53.2140  86.2399 0001566  25.4074 334.6995 15.08850206175777
Epoch: 2025-11-11T01:35Z
TLE epoch observation values (Epoch: 2025-11-11T01:35:23.643Z)
Latitude
Longitude
11.93325°
Altitude
539.63 km
Speed
7.594 km/s
True Right ascension
05h 44m 57s
True Declination
0° 00' 00"
Sunlit
Object was in full shadow at epoch
Visualization orbit readout
Latitude
Unknown
Longitude
Unknown
Altitude
Unknown
Speed
Unknown
Apparent Right ascension
Unknown
Apparent Declination
Unknown
Sunlit
N/A
Visualization observer readout
Local Sidereal Time
01:25:51
Azimuth
Unknown
Elevation
Unknown
Doppler factor
Unknown
Orbital elements
Apogee altitude
541.041 km
Perigee altitude
538.874 km
Semi-major axis
6,918.095 km
Eccentricity
0.00016
Inclination
53.214°
RAAN
86.2399°
Arg. of periapsis
25.4074°
True anomaly
334.69183°
Mean anomaly
334.6995°
Eccentric anomaly
334.69566°
Mean motion
3.77193 °/min
Orbital period
95.44 mins
BSTAR
0.000016087
Loading maneuver chart data...
Computing Atmospheric mass density...
Loading historical data...
Loading historical data...
Loading historical data...
Loading historical data...
Loading historical data...
Loading historical data...
Loading historical data...

Documentation

Showing up to 5 results
|